User: anonymous   Login
Location: Bismarck
(46.7731°N, 100.8200°W)
Time: 00:02:39
(UTC-05:00)
Language:

Landsat 7 - Orbit

View from above orbital plane
View from above orbital plane
View from above satellite
View from above satellite

Ground track
Ground track

The orbit data is extracted from the following two-line orbital elements,

1 25682U 99020A   15110.79728399  .00000601  00000-0  14355-3 0  9993
2 25682 098.2220 181.4573 0000697 089.7336 270.3935 14.57114139851789
Epoch (UTC): 20 April 2015 19:08:05
Eccentricity: 0.0000697
inclination: 98.2220°
perigee height: 702 km
apogee height: 703 km
right ascension of ascending node: 181.4573°
argument of perigee: 89.7336°
revolutions per day: 14.57114139
mean anomaly at epoch: 270.3935°
orbit number at epoch: 85178

The dashed part of the orbit path shows where the satellite is in the earth's shadow,  

DLR